Weather observations for the past three days for
Imperial Beach Naval Outlying Field - Ream Field
Metric (Imperial)
Date Time (pdt) Wind (kph) Vis. (km) Weather Sky Cond. Temperature (ºC) Relative Humidity Wind Chill (°C) Heat Index (°C) Pressure Precipitation (cm)
Air Dwpt 6 hour altimeter (cm) sea level (mb) 1 hr 3 hr 6 hr
Max. Min.
21 09:53 NW 17 16.09 Partly Cloudy SCT013 20 13.3 65% 75.64 1008.4
21 08:53 Vrbl 9 14.48 Mostly Cloudy BKN013 19.4 13.3 68% 75.64 1008.4
21 07:53 Vrbl 6 14.48 Mostly Cloudy BKN013 17.2 13.3 78% 75.62 1008.1
21 06:53 Calm 14.48 Overcast OVC012 17.2 13.3 78% 75.64 1008.5
21 05:53 NW 13 14.48 Overcast OVC012 0 0 0% 75.62 1008.2
21 04:53 NW 11 16.09 Overcast OVC011 0 0 0% 75.59 1007.9
21 03:53 NW 11 16.09 Overcast OVC011 0 0 0% 75.59 1007.9
21 02:53 NW 9 16.09 Overcast OVC011 0 0 0% 75.59 1007.9
21 01:53 NW 15 16.09 Overcast OVC012 0 0 0% 75.62 1008.2
21 00:53 NW 19 14.48 Overcast OVC012 0 0 0% 75.64 1008.5
20 23:53 NW 6 16.09 Overcast OVC013 0 0 0% 75.67 1008.9
20 22:53 NW 6 16.09 Partly Cloudy SCT016 19.4 16.7 84% 75.67 1008.7
20 21:53 NW 6 16.09 Partly Cloudy SCT016 18.9 16.1 84% 75.69 1008.9
20 20:53 NW 6 16.09 A Few Clouds FEW016 19.4 16.1 81% 75.67 1008.5
20 19:53 NW 15 16.09 Fair CLR 0 0 0% 75.67 1008.9
20 18:53 NW 20 16.09 A Few Clouds FEW015 20.6 16.1 76% 75.64 1008.5
20 17:53 W 22 16.09 A Few Clouds FEW016 20 15 73% 75.64 1008.4
20 16:53 NW 20 16.09 A Few Clouds FEW016 21.1 15.6 71% 75.67 1008.6
20 15:53 W 20 16.09 A Few Clouds FEW016 21.1 15.6 71% 75.72 1009.2
20 14:53 W 19 16.09 A Few Clouds FEW016 21.1 14.4 66% 75.74 1009.8
20 13:53 NW 17 16.09 A Few Clouds FEW016 20.6 14.4 68% 75.79 1010.3
20 12:53 W 19 16.09 A Few Clouds FEW016 20.6 14.4 68% 75.82 1010.7
20 11:53 W 19 16.09 A Few Clouds FEW016 20 14.4 70% 75.84 1010.9
20 10:53 W 15 16.09 Partly Cloudy SCT014 18.9 13.9 73% 75.82 1010.7
20 09:53 W 11 12.87 Mostly Cloudy BKN014 18.3 13.9 76% 75.79 1010.4
20 08:53 Calm 14.48 Overcast OVC014 18.3 13.9 76% 75.79 1010.5
20 07:53 Calm 12.87 Overcast OVC013 17.8 13.9 78% 75.79 1010.4
20 06:53 Calm 12.87 Overcast OVC013 17.2 13.3 78% 75.77 1010.2
20 05:53 Calm 16.09 Overcast OVC012 0 0 0% 75.72 1009.5
20 04:53 Calm 16.09 Overcast OVC012 0 0 0% 75.72 1009.5
20 03:53 Calm 16.09 Overcast OVC012 0 0 0% 75.72 1009.5
20 02:53 Calm 16.09 Overcast OVC012 0 0 0% 75.74 1009.9
20 01:53 NW 9 16.09 Overcast OVC013 0 0 0% 75.77 1010.2
20 00:53 NW 11 16.09 Overcast OVC014 0 0 0% 75.79 1010.6
19 23:53 NW 11 16.09 Overcast OVC014 0 0 0% 75.82 1010.9
19 22:53 NW 7 16.09 Overcast BKN014 OVC019 0 0 0% 75.84 1011.2
19 21:53 NW 9 16.09 Overcast FEW013 OVC020 0 0 0% 75.87 1011.6
19 20:53 NW 13 16.09 Overcast BKN013 OVC020 0 0 0% 75.82 1010.9
19 19:53 W 9 16.09 A Few Clouds FEW020 0 0 0% 75.82 1010.9
19 18:53 W 11 16.09 Fair CLR 0 0 0% 75.79 1010.6
19 17:53 W 11 16.09 A Few Clouds FEW014 0 0 0% 75.79 1010.6
19 16:53 W 13 16.09 Overcast OVC015 0 0 0% 75.84 1011.2
19 15:53 SW 17 16.09 Overcast OVC014 0 0 0% 75.84 1011.2
19 14:53 SW 22 16.09 Partly Cloudy SCT022 0 0 0% 75.87 1011.6
19 13:53 SW 20 16.09 Fair CLR 0 0 0% 75.9 1011.9
19 12:53 SW 19 16.09 Overcast OVC021 0 0 0% 75.92 1012.3
19 11:53 SW 22 G 31 16.09 Overcast SCT014 OVC021 0 0 0% 75.95 1012.6
19 10:53 SW 19 14.48 Overcast OVC020 0 0 0% 75.92 1012.3
19 09:53 SW 13 12.87 Overcast OVC019 0 0 0% 75.87 1011.6
19 08:53 SW 11 11.27 Overcast OVC017 0 0 0% 75.87 1011.6
19 07:53 SW 6 9.66 Overcast with Haze OVC015 0 0 0% 75.84 1011.2
19 06:53 Calm 12.87 Overcast OVC015 0 0 0% 75.82 1010.9
19 05:53 S 9 14.48 Overcast OVC015 0 0 0% 75.79 1010.6
19 04:53 SW 7 12.87 Overcast OVC014 0 0 0% 75.74 1009.9
19 03:53 SW 11 12.87 Overcast OVC016 0 0 0% 75.74 1009.9
19 02:53 SW 7 11.27 Overcast OVC016 0 0 0% 75.72 1009.5
19 01:53 S 6 14.48 Overcast OVC015 0 0 0% 75.74 1009.9
19 00:53 Calm 14.48 Overcast OVC015 0 0 0% 75.77 1010.2
18 23:53 SW 6 14.48 Overcast OVC015 0 0 0% 75.79 1010.6
18 22:53 S 6 16.09 Mostly Cloudy BKN014 17.8 13.3 75% 75.79 1010.4
18 21:53 SW 13 16.09 Mostly Cloudy BKN014 BKN020 17.9 13.3 75% 75.79 1010.3
18 20:53 SW 11 16.09 Mostly Cloudy BKN013 BKN020 17.8 15 84% 75.72 1009.5
18 19:53 SW 15 14.48 Mostly Cloudy BKN015 18.3 15 81% 75.69 1009.0
18 18:53 SW 13 14.48 Mostly Cloudy BKN015 18.9 15 78% 75.69 1009.0
18 17:53 SW 19 16.09 Partly Cloudy SCT017 20 15 73% 75.69 1008.9
18 14:53 SW 24 G 35 16.09 Partly Cloudy SCT019 21.7 15 66% 75.74 1009.7
18 13:53 SW 30 G 43 16.09 A Few Clouds FEW022 20.6 13.9 66% 75.69 1009.2
18 12:53 SW 28 G 43 16.09 A Few Clouds FEW022 19.4 12.8 66% 75.67 1008.9
18 11:53 SW 26 G 43 16.09 A Few Clouds FEW022 19.4 12.8 66% 75.69 1009.0
18 10:53 SW 26 16.09 A Few Clouds FEW022 19.4 12.8 66% 75.69 1009.0
Date Time (pdt) Wind (kph) Vis. (km) Weather Sky Cond. Air Dwpt Max. Min. Relative Humidity Wind Chill (°C) Heat Index (°C) altimeter (cm) sea level (mb) 1 hr 3 hr 6 hr
6 hour
Temperature (ºC) Pressure Precipitation (cm)